Location: G�ndlingen
(48.0142°N, 7.6396°E)
Time: 03:04:30
(UTC+00:00)

Cosmos 1812 Rocket - Pass Details

Date: 05 July 2020
Orbit: 605 x 633 km, 82.5° (Epoch: 04 August)

Event Time Altitude Azimuth Distance (km) Brightness Sun altitude
Rises 20:15:34 0° 348° (NNW) 2,882 8.1 -6.5°
Reaches altitude 10° 20:17:48 10° 345° (NNW) 1,970 7.2 -6.7°
Maximum altitude 20:22:07 65° 264° (W) 668 3.9 -7.3°
Drops below altitude 10° 20:26:23 10° 183° (S) 1,948 5.7 -7.7°
Enters shadow 20:28:10 - 180° (S) 2,671 6.4 -7.9°
